sat.trackr.live / text

‹ back to catalog

STARLINK-37905

NORAD 69946 · 2026-157D

PAYLOAD ACTIVE UNKNOWN

§ Identity

Operator
Country
US
Launch date
2026-07-09
Launch site
AFETR
Launch vehicle
Mass (kg)
RCS (m²)

Purposes: comms

External: N2YO · Heavens-Above · Gunter

§ Orbital elements

Epoch: 2026-09-19T22:21:05.698944Z

Period
93.85 min
Inclination
53.1601°
Eccentricity
0.0000917
Mean motion
15.34390832 rev/d
Perigee alt
462.1 km
Apogee alt
463.4 km
Semi-major
6,840.9 km
B*
6.3846e-4
RAAN
336.5188°
Arg perigee
85.3487°
Mean anomaly
274.7621°
Rev number
1,128

§ Raw data

STARLINK-379051 69946U 26157D   26262.93131596  .00021250  00000+0  63846-3 0  99992 69946  53.1601 336.5188 0000917  85.3487 274.7621 15.34390832 11287

JSON: /api/v1/satellites/69946 · /tle

For live sub-satellite position, see the globe view (requires WebGL).

§ Visibility from observer

Set your observer location to see the next 7 days of passes ≥ 10°. The values pass through the URL so the page stays shareable.

No JS? Fill the form by hand. The geolocation button needs JavaScript.